| time (UTC) | temp F | wind direction | speed MPH | gust MPH | rain 1hr in | rain 24hr in | rain mn in | humidity % | barometer mb |
| 20260902163705 | 66 | 182 | 0.0 | 0.0 | 0.00 | 0.00 | 0.00 | 82 | 1017.9 |
| 20260902163510 | 66 | 181 | 0.0 | 0.0 | 0.00 | 0.00 | 0.00 | 82 | 1016.9 |
| 20260902162705 | 65 | 253 | 0.0 | 0.0 | 0.00 | 0.00 | 0.00 | 82 | 1018.0 |
| 20260902162511 | 65 | 253 | 0.0 | 0.0 | 0.00 | 0.00 | 0.00 | 82 | 1017.0 |
| 20260902162204 | 65 | 253 | 0.0 | 0.0 | 0.00 | 0.00 | 0.00 | 82 | 1018.0 |
| 20260902161705 | 65 | 253 | 0.0 | 0.0 | 0.00 | 0.00 | 0.00 | 82 | 1018.0 |
| 20260902160705 | 65 | 253 | 0.0 | 0.0 | 0.00 | 0.00 | 0.00 | 82 | 1018.1 |
| 20260902160510 | 65 | 253 | 0.0 | 0.0 | 0.00 | 0.00 | 0.00 | 82 | 1017.0 |
| 20260902160204 | 65 | 253 | 0.0 | 0.0 | 0.00 | 0.00 | 0.00 | 82 | 1018.0 |
| 20260902155705 | 65 | 253 | 0.0 | 0.0 | 0.00 | 0.00 | 0.00 | 82 | 1018.1 |
| 20260902155510 | 65 | 253 | 0.0 | 0.0 | 0.00 | 0.00 | 0.00 | 82 | 1017.1 |
| 20260902154705 | 65 | 253 | 0.0 | 0.0 | 0.00 | 0.00 | 0.00 | 81 | 1018.1 |
| 20260902154511 | 65 | 281 | 0.0 | 0.0 | 0.00 | 0.00 | 0.00 | 81 | 1017.1 |
| 20260902154204 | 65 | 278 | 0.0 | 0.0 | 0.00 | 0.00 | 0.00 | 80 | 1018.2 |
| 20260902153704 | 65 | 267 | 0.0 | 0.0 | 0.00 | 0.00 | 0.00 | 80 | 1018.2 |
| 20260902153510 | 65 | 286 | 0.0 | 0.0 | 0.00 | 0.00 | 0.00 | 79 | 1017.2 |
| 20260902153205 | 65 | 276 | 0.0 | 1.0 | 0.00 | 0.00 | 0.00 | 78 | 1018.1 |
| 20260902152705 | 66 | 259 | 0.0 | 3.0 | 0.00 | 0.00 | 0.00 | 78 | 1018.3 |
| 20260902152510 | 66 | 274 | 1.0 | 8.0 | 0.00 | 0.00 | 0.00 | 77 | 1017.3 |
| 20260902152205 | 67 | 275 | 2.0 | 9.0 | 0.00 | 0.00 | 0.00 | 74 | 1018.3 |
| 20260902151705 | 68 | 292 | 1.0 | 10.0 | 0.00 | 0.00 | 0.00 | 70 | 1018.2 |
| 20260902151511 | 69 | 286 | 1.0 | 8.0 | 0.00 | 0.00 | 0.00 | 69 | 1017.2 |
| 20260902151204 | 70 | 300 | 2.0 | 14.0 | 0.00 | 0.00 | 0.00 | 66 | 1018.1 |
| 20260902150705 | 72 | 277 | 6.0 | 14.0 | 0.00 | 0.00 | 0.00 | 58 | 1018.1 |
| 20260902150510 | 72 | 235 | 1.0 | 9.0 | 0.00 | 0.00 | 0.00 | 56 | 1017.0 |
| 20260902150205 | 72 | 239 | 0.0 | 0.0 | 0.00 | 0.00 | 0.00 | 56 | 1017.8 |
| 20260902145704 | 73 | 250 | 0.0 | 0.0 | 0.00 | 0.00 | 0.00 | 56 | 1017.7 |
| 20260902145511 | 73 | 231 | 0.0 | 3.0 | 0.00 | 0.00 | 0.00 | 55 | 1016.8 |
| 20260902145204 | 73 | 219 | 0.0 | 3.0 | 0.00 | 0.00 | 0.00 | 55 | 1017.7 |
| 20260902144705 | 73 | 211 | 1.0 | 7.0 | 0.00 | 0.00 | 0.00 | 53 | 1017.7 |
| 20260902144510 | 74 | 227 | 0.0 | 7.0 | 0.00 | 0.00 | 0.00 | 53 | 1016.8 |
| 20260902144204 | 74 | 237 | 0.0 | 7.0 | 0.00 | 0.00 | 0.00 | 53 | 1017.7 |
| 20260902143705 | 74 | 254 | 0.0 | 12.0 | 0.00 | 0.00 | 0.00 | 52 | 1017.7 |
| 20260902143510 | 74 | 260 | 2.0 | 11.0 | 0.00 | 0.00 | 0.00 | 53 | 1016.8 |
| 20260902143204 | 74 | 277 | 0.0 | 8.0 | 0.00 | 0.00 | 0.00 | 54 | 1017.7 |
| 20260902142705 | 73 | 246 | 2.0 | 10.0 | 0.00 | 0.00 | 0.00 | 55 | 1017.6 |
| 20260902142204 | 74 | 252 | 0.0 | 2.0 | 0.00 | 0.00 | 0.00 | 53 | 1017.5 |
| 20260902141705 | 74 | 264 | 2.0 | 9.0 | 0.00 | 0.00 | 0.00 | 52 | 1017.6 |
| 20260902141510 | 74 | 289 | 1.0 | 9.0 | 0.00 | 0.00 | 0.00 | 53 | 1016.7 |
| 20260902141204 | 74 | 260 | 1.0 | 7.0 | 0.00 | 0.00 | 0.00 | 53 | 1017.6 |
| 20260902140704 | 74 | 228 | 1.0 | 7.0 | 0.00 | 0.00 | 0.00 | 53 | 1017.5 |
| 20260902140510 | 74 | 237 | 0.0 | 7.0 | 0.00 | 0.00 | 0.00 | 55 | 1016.7 |
| 20260902140204 | 73 | 231 | 0.0 | 2.0 | 0.00 | 0.00 | 0.00 | 53 | 1017.6 |
| 20260902135510 | 73 | 267 | 0.0 | 10.0 | 0.00 | 0.00 | 0.00 | 53 | 1016.8 |
| 20260902134705 | 74 | 230 | 0.0 | 2.0 | 0.00 | 0.00 | 0.00 | 52 | 1017.7 |
| 20260902134510 | 74 | 210 | 0.0 | 3.0 | 0.00 | 0.00 | 0.00 | 52 | 1016.8 |
| 20260902133704 | 73 | 224 | 0.0 | 6.0 | 0.00 | 0.00 | 0.00 | 53 | 1017.7 |
| 20260902133510 | 73 | 248 | 1.0 | 6.0 | 0.00 | 0.00 | 0.00 | 53 | 1016.8 |
| 20260902133205 | 74 | 226 | 0.0 | 3.0 | 0.00 | 0.00 | 0.00 | 52 | 1017.8 |
| 20260902132705 | 74 | 273 | 1.0 | 8.0 | 0.00 | 0.00 | 0.00 | 52 | 1017.7 |
| 20260902132510 | 74 | 224 | 1.0 | 10.0 | 0.00 | 0.00 | 0.00 | 52 | 1016.9 |
| 20260902132204 | 74 | 292 | 2.0 | 8.0 | 0.00 | 0.00 | 0.00 | 51 | 1017.8 |
| 20260902131704 | 74 | 242 | 1.0 | 9.0 | 0.00 | 0.00 | 0.00 | 50 | 1017.8 |
| 20260902131510 | 74 | 254 | 1.0 | 10.0 | 0.00 | 0.00 | 0.00 | 49 | 1016.9 |
| 20260902131204 | 74 | 283 | 2.0 | 9.0 | 0.00 | 0.00 | 0.00 | 48 | 1017.8 |
| 20260902130704 | 75 | 274 | 0.0 | 9.0 | 0.00 | 0.00 | 0.00 | 51 | 1017.8 |
| 20260902130511 | 75 | 222 | 0.0 | 9.0 | 0.00 | 0.00 | 0.00 | 50 | 1016.9 |
| 20260902125705 | 74 | 259 | 0.0 | 1.0 | 0.00 | 0.00 | 0.00 | 51 | 1017.8 |
| 20260902125510 | 74 | 209 | 0.0 | 0.0 | 0.00 | 0.00 | 0.00 | 50 | 1016.9 |
| 20260902125205 | 74 | 245 | 0.0 | 1.0 | 0.00 | 0.00 | 0.00 | 50 | 1017.8 |
| 20260902124705 | 73 | 250 | 0.0 | 2.0 | 0.00 | 0.00 | 0.00 | 51 | 1017.9 |
| 20260902124510 | 73 | 227 | 0.0 | 3.0 | 0.00 | 0.00 | 0.00 | 54 | 1016.9 |
| 20260902124204 | 73 | 273 | 0.0 | 3.0 | 0.00 | 0.00 | 0.00 | 53 | 1017.9 |
| 20260902123704 | 73 | 251 | 0.0 | 12.0 | 0.00 | 0.00 | 0.00 | 53 | 1017.9 |
| 20260902123510 | 73 | 287 | 1.0 | 11.0 | 0.00 | 0.00 | 0.00 | 52 | 1017.0 |
| 20260902123205 | 73 | 258 | 1.0 | 12.0 | 0.00 | 0.00 | 0.00 | 53 | 1017.9 |
| 20260902122511 | 73 | 212 | 0.0 | 1.0 | 0.00 | 0.00 | 0.00 | 53 | 1017.1 |
| 20260902122204 | 73 | 222 | 0.0 | 1.0 | 0.00 | 0.00 | 0.00 | 52 | 1018.0 |
| 20260902121704 | 73 | 245 | 0.0 | 1.0 | 0.00 | 0.00 | 0.00 | 54 | 1018.0 |
| 20260902121205 | 73 | 266 | 0.0 | 3.0 | 0.00 | 0.00 | 0.00 | 53 | 1018.1 |
| 20260902120705 | 74 | 242 | 0.0 | 1.0 | 0.00 | 0.00 | 0.00 | 52 | 1018.0 |
| 20260902120510 | 74 | 252 | 0.0 | 1.0 | 0.00 | 0.00 | 0.00 | 52 | 1017.1 |
| 20260902115704 | 74 | 205 | 0.0 | 1.0 | 0.00 | 0.00 | 0.00 | 53 | 1018.0 |
| 20260902115205 | 73 | 243 | 0.0 | 6.0 | 0.00 | 0.00 | 0.00 | 55 | 1018.1 |
| 20260902114705 | 72 | 275 | 1.0 | 8.0 | 0.00 | 0.00 | 0.00 | 56 | 1018.2 |
| 20260902114204 | 72 | 232 | 1.0 | 9.0 | 0.00 | 0.00 | 0.00 | 54 | 1018.2 |
| 20260902113704 | 72 | 239 | 1.0 | 8.0 | 0.00 | 0.00 | 0.00 | 55 | 1018.2 |
| 20260902113511 | 72 | 265 | 0.0 | 8.0 | 0.00 | 0.00 | 0.00 | 55 | 1017.3 |
| 20260902113205 | 72 | 260 | 0.0 | 3.0 | 0.00 | 0.00 | 0.00 | 54 | 1018.3 |
| 20260902112704 | 72 | 227 | 1.0 | 7.0 | 0.00 | 0.00 | 0.00 | 56 | 1018.3 |
| 20260902112205 | 73 | 249 | 2.0 | 12.0 | 0.00 | 0.00 | 0.00 | 54 | 1018.3 |
| 20260902111511 | 73 | 237 | 1.0 | 9.0 | 0.00 | 0.00 | 0.00 | 54 | 1017.5 |
| 20260902111205 | 73 | 233 | 1.0 | 8.0 | 0.00 | 0.00 | 0.00 | 56 | 1018.4 |
| 20260902110704 | 73 | 246 | 1.0 | 12.0 | 0.00 | 0.00 | 0.00 | 56 | 1018.3 |
| 20260902110204 | 73 | 275 | 0.0 | 3.0 | 0.00 | 0.00 | 0.00 | 55 | 1018.4 |
| 20260902105704 | 73 | 273 | 0.0 | 3.0 | 0.00 | 0.00 | 0.00 | 56 | 1018.4 |
| 20260902105510 | 73 | 229 | 1.0 | 8.0 | 0.00 | 0.00 | 0.00 | 57 | 1017.5 |
| 20260902104705 | 73 | 262 | 0.0 | 6.0 | 0.00 | 0.00 | 0.00 | 55 | 1018.4 |
| 20260902104510 | 73 | 251 | 0.0 | 9.0 | 0.00 | 0.00 | 0.00 | 55 | 1017.5 |
| 20260902104205 | 73 | 216 | 1.0 | 7.0 | 0.00 | 0.00 | 0.00 | 58 | 1018.4 |
| 20260902103705 | 72 | 209 | 0.0 | 3.0 | 0.00 | 0.00 | 0.00 | 56 | 1018.5 |
| 20260902103510 | 72 | 147 | 1.0 | 4.0 | 0.00 | 0.00 | 0.00 | 56 | 1017.6 |
| 20260902103204 | 72 | 268 | 1.0 | 5.0 | 0.00 | 0.00 | 0.00 | 55 | 1018.5 |
| 20260902102704 | 73 | 204 | 0.0 | 0.0 | 0.00 | 0.00 | 0.00 | 57 | 1018.5 |
| 20260902102511 | 73 | 289 | 0.0 | 3.0 | 0.00 | 0.00 | 0.00 | 56 | 1017.6 |
| 20260902102204 | 72 | 216 | 0.0 | 3.0 | 0.00 | 0.00 | 0.00 | 57 | 1018.5 |
| 20260902101704 | 72 | 267 | 1.0 | 10.0 | 0.00 | 0.00 | 0.00 | 57 | 1018.6 |
| 20260902101510 | 72 | 190 | 0.0 | 3.0 | 0.00 | 0.00 | 0.00 | 58 | 1017.7 |
| 20260902101204 | 72 | 227 | 0.0 | 1.0 | 0.00 | 0.00 | 0.00 | 59 | 1018.6 |
| 20260902100204 | 71 | 232 | 0.0 | 7.0 | 0.00 | 0.00 | 0.00 | 60 | 1018.4 |
| 20260902095704 | 71 | 223 | 0.0 | 2.0 | 0.00 | 0.00 | 0.00 | 62 | 1018.5 |
| 20260902095204 | 71 | 257 | 0.0 | 9.0 | 0.00 | 0.00 | 0.00 | 62 | 1018.5 |
| 20260902094705 | 71 | 224 | 0.0 | 3.0 | 0.00 | 0.00 | 0.00 | 63 | 1018.5 |
| 20260902094512 | 71 | 201 | 0.0 | 8.0 | 0.00 | 0.00 | 0.00 | 64 | 1017.7 |
| 20260902094204 | 71 | 221 | 1.0 | 8.0 | 0.00 | 0.00 | 0.00 | 66 | 1018.5 |
| 20260902093704 | 70 | 201 | 0.0 | 5.0 | 0.00 | 0.00 | 0.00 | 65 | 1018.6 |
| 20260902093512 | 70 | 249 | 0.0 | 5.0 | 0.00 | 0.00 | 0.00 | 65 | 1017.7 |
| 20260902093204 | 70 | 223 | 0.0 | 3.0 | 0.00 | 0.00 | 0.00 | 65 | 1018.6 |
| 20260902092512 | 70 | 219 | 0.0 | 6.0 | 0.00 | 0.00 | 0.00 | 65 | 1017.7 |
| 20260902092204 | 70 | 208 | 1.0 | 6.0 | 0.00 | 0.00 | 0.00 | 64 | 1018.6 |
| 20260902091704 | 70 | 186 | 0.0 | 6.0 | 0.00 | 0.00 | 0.00 | 63 | 1018.6 |
| 20260902091512 | 70 | 188 | 0.0 | 6.0 | 0.00 | 0.00 | 0.00 | 63 | 1017.6 |
| 20260902091204 | 70 | 219 | 0.0 | 0.0 | 0.00 | 0.00 | 0.00 | 65 | 1018.6 |
| 20260902090704 | 69 | 222 | 0.0 | 1.0 | 0.00 | 0.00 | 0.00 | 68 | 1018.6 |
| 20260902090512 | 69 | 238 | 0.0 | 1.0 | 0.00 | 0.00 | 0.00 | 67 | 1017.7 |
| 20260902085704 | 69 | 201 | 0.0 | 3.0 | 0.00 | 0.00 | 0.00 | 69 | 1018.6 |
| 20260902085512 | 69 | 230 | 0.0 | 4.0 | 0.00 | 0.00 | 0.00 | 67 | 1017.5 |
| 20260902084704 | 68 | 194 | 0.0 | 1.0 | 0.00 | 0.00 | 0.00 | 69 | 1018.5 |
| 20260902084512 | 68 | 190 | 0.0 | 1.0 | 0.00 | 0.00 | 0.00 | 69 | 1017.6 |
| 20260902084204 | 68 | 239 | 0.0 | 1.0 | 0.00 | 0.00 | 0.00 | 70 | 1018.6 |
| 20260902083704 | 67 | 246 | 0.0 | 1.0 | 0.00 | 0.00 | 0.00 | 72 | 1018.5 |
| 20260902083512 | 67 | 281 | 0.0 | 0.0 | 0.00 | 0.00 | 0.00 | 73 | 1017.5 |
| 20260902083204 | 67 | 203 | 0.0 | 1.0 | 0.00 | 0.00 | 0.00 | 71 | 1018.5 |
| 20260902082704 | 66 | 232 | 0.0 | 3.0 | 0.00 | 0.00 | 0.00 | 71 | 1018.5 |
| 20260902082512 | 66 | 211 | 0.0 | 3.0 | 0.00 | 0.00 | 0.00 | 71 | 1017.5 |
| 20260902082204 | 66 | 197 | 0.0 | 3.0 | 0.00 | 0.00 | 0.00 | 74 | 1018.5 |
| 20260902081705 | 65 | 234 | 0.0 | 3.0 | 0.00 | 0.00 | 0.00 | 75 | 1018.5 |
| 20260902081204 | 65 | 243 | 0.0 | 3.0 | 0.00 | 0.00 | 0.00 | 75 | 1018.6 |
| 20260902080704 | 65 | 220 | 0.0 | 2.0 | 0.00 | 0.00 | 0.00 | 74 | 1018.6 |
| 20260902080512 | 65 | 205 | 0.0 | 5.0 | 0.00 | 0.00 | 0.00 | 74 | 1017.5 |
| 20260902080204 | 65 | 216 | 1.0 | 5.0 | 0.00 | 0.00 | 0.00 | 75 | 1018.6 |
| 20260902075704 | 64 | 212 | 0.0 | 0.0 | 0.00 | 0.00 | 0.00 | 78 | 1018.7 |
| 20260902075512 | 64 | 228 | 0.0 | 0.0 | 0.00 | 0.00 | 0.00 | 79 | 1017.6 |
| 20260902075204 | 63 | 263 | 0.0 | 0.0 | 0.00 | 0.00 | 0.00 | 80 | 1018.6 |
| 20260902074704 | 62 | 196 | 0.0 | 0.0 | 0.00 | 0.00 | 0.00 | 81 | 1018.6 |
| 20260902074512 | 62 | 194 | 0.0 | 0.0 | 0.00 | 0.00 | 0.00 | 80 | 1017.6 |
| 20260902074204 | 62 | 244 | 0.0 | 0.0 | 0.00 | 0.00 | 0.00 | 80 | 1018.6 |
| 20260902073704 | 62 | 218 | 0.0 | 0.0 | 0.00 | 0.00 | 0.00 | 80 | 1018.5 |
| 20260902073512 | 62 | 149 | 0.0 | 0.0 | 0.00 | 0.00 | 0.00 | 80 | 1017.6 |
| 20260902073204 | 62 | 152 | 0.0 | 0.0 | 0.00 | 0.00 | 0.00 | 80 | 1018.5 |
| 20260902072704 | 61 | 178 | 0.0 | 0.0 | 0.00 | 0.00 | 0.00 | 82 | 1018.5 |
| 20260902072512 | 61 | 196 | 0.0 | 0.0 | 0.00 | 0.00 | 0.00 | 81 | 1017.5 |
| 20260902071704 | 61 | 190 | 0.0 | 0.0 | 0.00 | 0.00 | 0.00 | 83 | 1018.5 |
| 20260902071512 | 60 | 173 | 0.0 | 0.0 | 0.00 | 0.00 | 0.00 | 84 | 1017.4 |
| 20260902071204 | 60 | 201 | 0.0 | 0.0 | 0.00 | 0.00 | 0.00 | 85 | 1018.5 |
| 20260902070704 | 59 | 194 | 0.0 | 0.0 | 0.00 | 0.00 | 0.00 | 88 | 1018.4 |
| 20260902070204 | 58 | 165 | 0.0 | 0.0 | 0.00 | 0.00 | 0.00 | 87 | 1018.5 |
| 20260902065704 | 58 | 210 | 0.0 | 0.0 | 0.00 | 0.00 | 0.00 | 87 | 1018.4 |
| 20260902065512 | 58 | 205 | 0.0 | 0.0 | 0.00 | 0.00 | 0.00 | 87 | 1017.5 |
| 20260902064512 | 58 | 148 | 0.0 | 0.0 | 0.00 | 0.00 | 0.00 | 88 | 1017.5 |
| 20260902063704 | 57 | 195 | 0.0 | 0.0 | 0.00 | 0.00 | 0.00 | 89 | 1018.4 |
| 20260902063512 | 57 | 198 | 0.0 | 0.0 | 0.00 | 0.00 | 0.00 | 89 | 1017.5 |
| 20260902063204 | 57 | 198 | 0.0 | 0.0 | 0.00 | 0.00 | 0.00 | 90 | 1018.4 |
| 20260902062704 | 57 | 195 | 0.0 | 0.0 | 0.00 | 0.00 | 0.00 | 90 | 1018.5 |
| 20260902062512 | 57 | 195 | 0.0 | 0.0 | 0.00 | 0.00 | 0.00 | 90 | 1017.5 |
| 20260902062204 | 57 | 189 | 0.0 | 0.0 | 0.00 | 0.00 | 0.00 | 90 | 1018.5 |
| 20260902061704 | 57 | 200 | 0.0 | 0.0 | 0.00 | 0.00 | 0.00 | 91 | 1018.6 |
| 20260902061204 | 56 | 254 | 0.0 | 0.0 | 0.00 | 0.00 | 0.00 | 91 | 1018.5 |
| 20260902060512 | 56 | 254 | 0.0 | 0.0 | 0.00 | 0.00 | 0.00 | 92 | 1017.5 |
| 20260902055704 | 56 | 254 | 0.0 | 0.0 | 0.00 | 0.00 | 0.00 | 92 | 1018.5 |
| 20260902055512 | 56 | 254 | 0.0 | 0.0 | 0.00 | 0.00 | 0.00 | 92 | 1017.5 |
| 20260902054512 | 56 | 254 | 0.0 | 0.0 | 0.00 | 0.00 | 0.00 | 92 | 1017.5 |
| 20260902054204 | 55 | 254 | 0.0 | 0.0 | 0.00 | 0.00 | 0.00 | 92 | 1018.4 |
| 20260902053704 | 55 | 254 | 0.0 | 0.0 | 0.00 | 0.00 | 0.00 | 92 | 1018.3 |
| 20260902053512 | 55 | 254 | 0.0 | 0.0 | 0.00 | 0.00 | 0.00 | 92 | 1017.3 |
| 20260902053204 | 55 | 254 | 0.0 | 0.0 | 0.00 | 0.00 | 0.00 | 92 | 1018.3 |
| 20260902052704 | 55 | 254 | 0.0 | 0.0 | 0.00 | 0.00 | 0.00 | 92 | 1018.3 |
| 20260902052516 | 55 | 254 | 0.0 | 0.0 | 0.00 | 0.00 | 0.00 | 92 | 1017.3 |
| 20260902052205 | 55 | 254 | 0.0 | 0.0 | 0.00 | 0.00 | 0.00 | 92 | 1018.3 |
| 20260902051705 | 55 | 254 | 0.0 | 0.0 | 0.00 | 0.00 | 0.00 | 92 | 1018.3 |
| 20260902051206 | 54 | 254 | 0.0 | 0.0 | 0.00 | 0.00 | 0.00 | 92 | 1018.3 |
| 20260902050706 | 54 | 254 | 0.0 | 0.0 | 0.00 | 0.00 | 0.00 | 92 | 1018.2 |
| 20260902050513 | 54 | 254 | 0.0 | 0.0 | 0.00 | 0.00 | 0.00 | 92 | 1017.2 |
| 20260902050206 | 54 | 254 | 0.0 | 0.0 | 0.00 | 0.00 | 0.00 | 92 | 1018.2 |
| 20260902045706 | 54 | 254 | 0.0 | 0.0 | 0.00 | 0.00 | 0.00 | 92 | 1018.2 |
| 20260902045512 | 54 | 254 | 0.0 | 0.0 | 0.00 | 0.00 | 0.00 | 92 | 1017.2 |
| 20260902045206 | 54 | 254 | 0.0 | 0.0 | 0.00 | 0.00 | 0.00 | 92 | 1018.2 |
| 20260902044706 | 54 | 254 | 0.0 | 0.0 | 0.00 | 0.00 | 0.00 | 92 | 1018.3 |
| 20260902044513 | 54 | 254 | 0.0 | 0.0 | 0.00 | 0.00 | 0.00 | 92 | 1017.2 |
| 20260902043705 | 54 | 254 | 0.0 | 0.0 | 0.00 | 0.00 | 0.00 | 92 | 1018.2 |
| 20260902043512 | 54 | 254 | 0.0 | 0.0 | 0.00 | 0.00 | 0.00 | 92 | 1017.2 |
| 20260902043206 | 54 | 254 | 0.0 | 0.0 | 0.00 | 0.00 | 0.00 | 92 | 1018.3 |
| 20260902042705 | 54 | 254 | 0.0 | 0.0 | 0.00 | 0.00 | 0.00 | 92 | 1018.3 |
| 20260902042512 | 54 | 254 | 0.0 | 0.0 | 0.00 | 0.00 | 0.00 | 92 | 1017.3 |
| 20260902042206 | 54 | 254 | 0.0 | 0.0 | 0.00 | 0.00 | 0.00 | 92 | 1018.4 |
| 20260902041706 | 54 | 254 | 0.0 | 0.0 | 0.00 | 0.00 | 0.00 | 92 | 1018.4 |
| 20260902041512 | 54 | 254 | 0.0 | 0.0 | 0.00 | 0.00 | 0.00 | 92 | 1017.4 |
| 20260902041206 | 54 | 254 | 0.0 | 0.0 | 0.00 | 0.00 | 0.00 | 92 | 1018.4 |
| 20260902040706 | 54 | 254 | 0.0 | 0.0 | 0.00 | 0.00 | 0.00 | 92 | 1018.4 |
| 20260902040512 | 54 | 254 | 0.0 | 0.0 | 0.00 | 0.00 | 0.00 | 92 | 1017.4 |
| 20260902035705 | 54 | 254 | 0.0 | 0.0 | 0.00 | 0.00 | 0.00 | 92 | 1018.5 |
| 20260902035512 | 54 | 254 | 0.0 | 0.0 | 0.00 | 0.00 | 0.00 | 92 | 1017.5 |
| 20260902035205 | 54 | 254 | 0.0 | 0.0 | 0.00 | 0.00 | 0.00 | 92 | 1018.5 |
| 20260902034706 | 54 | 254 | 0.0 | 0.0 | 0.00 | 0.00 | 0.00 | 92 | 1018.5 |
| 20260902034512 | 54 | 254 | 0.0 | 0.0 | 0.00 | 0.00 | 0.00 | 92 | 1017.5 |
| 20260902034206 | 54 | 254 | 0.0 | 0.0 | 0.00 | 0.00 | 0.00 | 92 | 1018.5 |
| 20260902033706 | 54 | 254 | 0.0 | 0.0 | 0.00 | 0.01 | 0.00 | 92 | 1018.5 |
| 20260902033512 | 54 | 254 | 0.0 | 0.0 | 0.00 | 0.00 | 0.00 | 92 | 1017.5 |
| 20260902033206 | 54 | 254 | 0.0 | 0.0 | 0.00 | 0.01 | 0.00 | 92 | 1018.5 |
| 20260902032706 | 54 | 254 | 0.0 | 0.0 | 0.00 | 0.01 | 0.00 | 93 | 1018.5 |
| 20260902032512 | 54 | 254 | 0.0 | 0.0 | 0.00 | 0.00 | 0.00 | 93 | 1017.6 |
| 20260902031705 | 54 | 254 | 0.0 | 0.0 | 0.00 | 0.01 | 0.00 | 93 | 1018.6 |
| 20260902031515 | 54 | 254 | 0.0 | 0.0 | 0.00 | 0.00 | 0.00 | 92 | 1017.6 |
| 20260902031205 | 54 | 254 | 0.0 | 0.0 | 0.00 | 0.01 | 0.00 | 92 | 1018.6 |
| 20260902030705 | 54 | 254 | 0.0 | 0.0 | 0.00 | 0.01 | 0.00 | 92 | 1018.7 |
| 20260902030512 | 54 | 254 | 0.0 | 0.0 | 0.00 | 0.00 | 0.00 | 92 | 1017.7 |
| 20260902030205 | 54 | 254 | 0.0 | 0.0 | 0.00 | 0.01 | 0.00 | 92 | 1018.6 |
| 20260902025512 | 53 | 254 | 0.0 | 0.0 | 0.00 | 0.00 | 0.00 | 92 | 1017.7 |
| 20260902025205 | 53 | 254 | 0.0 | 0.0 | 0.00 | 0.01 | 0.00 | 92 | 1018.7 |
| 20260902024706 | 53 | 254 | 0.0 | 0.0 | 0.00 | 0.01 | 0.00 | 92 | 1018.7 |
| 20260902024512 | 53 | 254 | 0.0 | 0.0 | 0.00 | 0.00 | 0.00 | 92 | 1017.7 |
| 20260902024205 | 53 | 254 | 0.0 | 0.0 | 0.00 | 0.01 | 0.00 | 92 | 1018.7 |
| 20260902023705 | 53 | 254 | 0.0 | 0.0 | 0.00 | 0.01 | 0.00 | 92 | 1018.8 |
| 20260902023512 | 53 | 254 | 0.0 | 0.0 | 0.00 | 0.00 | 0.00 | 92 | 1017.8 |
| 20260902023205 | 53 | 254 | 0.0 | 0.0 | 0.00 | 0.01 | 0.00 | 92 | 1018.8 |
| 20260902022705 | 53 | 254 | 0.0 | 0.0 | 0.00 | 0.01 | 0.00 | 92 | 1018.7 |
| 20260902022512 | 53 | 254 | 0.0 | 0.0 | 0.00 | 0.00 | 0.00 | 92 | 1017.8 |
| 20260902022205 | 53 | 254 | 0.0 | 0.0 | 0.00 | 0.01 | 0.00 | 92 | 1018.8 |
| 20260902021705 | 53 | 254 | 0.0 | 0.0 | 0.00 | 0.01 | 0.00 | 92 | 1018.9 |
| 20260902021512 | 53 | 254 | 0.0 | 0.0 | 0.00 | 0.00 | 0.00 | 92 | 1017.9 |
| 20260902021205 | 53 | 254 | 0.0 | 0.0 | 0.00 | 0.01 | 0.00 | 92 | 1018.9 |
| 20260902020705 | 53 | 254 | 0.0 | 0.0 | 0.00 | 0.01 | 0.00 | 92 | 1018.9 |
| 20260902020512 | 53 | 254 | 0.0 | 0.0 | 0.00 | 0.00 | 0.00 | 92 | 1018.0 |
| 20260902020205 | 52 | 254 | 0.0 | 0.0 | 0.00 | 0.01 | 0.00 | 92 | 1018.9 |
| 20260902015706 | 52 | 254 | 0.0 | 0.0 | 0.00 | 0.01 | 0.00 | 92 | 1019.0 |
| 20260902015512 | 52 | 254 | 0.0 | 0.0 | 0.00 | 0.00 | 0.00 | 92 | 1018.0 |
| 20260902015206 | 52 | 254 | 0.0 | 0.0 | 0.00 | 0.01 | 0.00 | 92 | 1018.9 |
| 20260902014705 | 52 | 254 | 0.0 | 0.0 | 0.00 | 0.01 | 0.00 | 91 | 1019.0 |
| 20260902014512 | 52 | 254 | 0.0 | 0.0 | 0.00 | 0.00 | 0.00 | 91 | 1018.0 |
| 20260902014205 | 52 | 254 | 0.0 | 0.0 | 0.00 | 0.01 | 0.00 | 91 | 1019.0 |
| 20260902013706 | 52 | 254 | 0.0 | 0.0 | 0.00 | 0.01 | 0.00 | 91 | 1019.0 |
| 20260902013512 | 52 | 254 | 0.0 | 0.0 | 0.00 | 0.00 | 0.00 | 91 | 1018.1 |
| 20260902013206 | 52 | 254 | 0.0 | 0.0 | 0.00 | 0.01 | 0.00 | 91 | 1019.0 |
| 20260902012705 | 52 | 254 | 0.0 | 0.0 | 0.00 | 0.01 | 0.00 | 91 | 1019.0 |
| 20260902012512 | 52 | 254 | 0.0 | 0.0 | 0.00 | 0.00 | 0.00 | 91 | 1018.0 |
| 20260902012205 | 52 | 254 | 0.0 | 0.0 | 0.00 | 0.01 | 0.00 | 91 | 1019.0 |
| 20260902011705 | 52 | 254 | 0.0 | 0.0 | 0.00 | 0.01 | 0.00 | 91 | 1018.9 |
| 20260902011512 | 52 | 254 | 0.0 | 0.0 | 0.00 | 0.00 | 0.00 | 91 | 1017.9 |
| 20260902010205 | 52 | 254 | 0.0 | 0.0 | 0.00 | 0.01 | 0.00 | 91 | 1018.9 |
| 20260902005705 | 53 | 254 | 0.0 | 0.0 | 0.00 | 0.01 | 0.00 | 91 | 1018.8 |
| 20260902005512 | 53 | 254 | 0.0 | 0.0 | 0.00 | 0.00 | 0.00 | 91 | 1017.9 |
| 20260902005206 | 53 | 254 | 0.0 | 0.0 | 0.00 | 0.01 | 0.00 | 91 | 1018.9 |
| 20260902004706 | 53 | 254 | 0.0 | 0.0 | 0.00 | 0.01 | 0.00 | 91 | 1018.9 |
| 20260902004512 | 53 | 254 | 0.0 | 0.0 | 0.00 | 0.00 | 0.00 | 91 | 1017.9 |
| 20260902004205 | 53 | 254 | 0.0 | 0.0 | 0.00 | 0.01 | 0.00 | 91 | 1018.8 |
| 20260902003705 | 53 | 254 | 0.0 | 0.0 | 0.00 | 0.01 | 0.00 | 91 | 1018.9 |
| 20260902003512 | 53 | 254 | 0.0 | 0.0 | 0.00 | 0.00 | 0.00 | 91 | 1017.8 |
| 20260902003205 | 53 | 254 | 0.0 | 0.0 | 0.00 | 0.01 | 0.00 | 91 | 1018.8 |
| 20260902002705 | 52 | 254 | 0.0 | 0.0 | 0.00 | 0.01 | 0.00 | 90 | 1018.9 |
| 20260902002512 | 53 | 254 | 0.0 | 0.0 | 0.00 | 0.00 | 0.00 | 90 | 1017.9 |
| 20260902001512 | 53 | 254 | 0.0 | 0.0 | 0.00 | 0.00 | 0.00 | 90 | 1017.8 |
| 20260902001205 | 53 | 254 | 0.0 | 0.0 | 0.00 | 0.01 | 0.00 | 90 | 1018.8 |
| 20260902000706 | 53 | 254 | 0.0 | 0.0 | 0.00 | 0.01 | 0.00 | 90 | 1018.8 |
| 20260902000512 | 53 | 254 | 0.0 | 0.0 | 0.00 | 0.00 | 0.00 | 90 | 1017.8 |
| 20260902000205 | 53 | 254 | 0.0 | 0.0 | 0.00 | 0.01 | 0.00 | 90 | 1018.8 |
| 20260901235705 | 53 | 254 | 0.0 | 0.0 | 0.00 | 0.01 | 0.00 | 90 | 1018.8 |
| 20260901235511 | 53 | 254 | 0.0 | 0.0 | 0.00 | 0.00 | 0.00 | 90 | 1017.7 |
| 20260901235205 | 53 | 254 | 0.0 | 0.0 | 0.00 | 0.01 | 0.00 | 89 | 1018.7 |
| 20260901234706 | 53 | 254 | 0.0 | 0.0 | 0.00 | 0.01 | 0.00 | 90 | 1018.7 |
| 20260901234206 | 53 | 254 | 0.0 | 0.0 | 0.00 | 0.01 | 0.00 | 90 | 1018.6 |
| 20260901233512 | 53 | 254 | 0.0 | 0.0 | 0.00 | 0.00 | 0.00 | 90 | 1017.7 |
| 20260901233205 | 53 | 254 | 0.0 | 0.0 | 0.00 | 0.01 | 0.00 | 89 | 1018.7 |
| 20260901232512 | 53 | 254 | 0.0 | 0.0 | 0.00 | 0.00 | 0.00 | 89 | 1017.9 |
| 20260901232205 | 54 | 254 | 0.0 | 0.0 | 0.00 | 0.01 | 0.00 | 89 | 1018.9 |
| 20260901231705 | 54 | 254 | 0.0 | 0.0 | 0.00 | 0.01 | 0.00 | 89 | 1019.0 |
| 20260901231511 | 54 | 254 | 0.0 | 0.0 | 0.00 | 0.00 | 0.00 | 89 | 1018.0 |
| 20260901231205 | 54 | 254 | 0.0 | 0.0 | 0.00 | 0.01 | 0.00 | 89 | 1019.0 |
| 20260901230706 | 54 | 254 | 0.0 | 0.0 | 0.00 | 0.01 | 0.00 | 89 | 1019.1 |
| 20260901230512 | 53 | 254 | 0.0 | 0.0 | 0.00 | 0.00 | 0.00 | 89 | 1018.1 |
| 20260901230206 | 54 | 254 | 0.0 | 0.0 | 0.00 | 0.01 | 0.00 | 88 | 1019.3 |
| 20260901225512 | 54 | 254 | 0.0 | 0.0 | 0.00 | 0.00 | 0.00 | 88 | 1018.4 |
| 20260901225205 | 54 | 254 | 0.0 | 0.0 | 0.00 | 0.01 | 0.00 | 88 | 1019.4 |
| 20260901224512 | 54 | 254 | 0.0 | 0.0 | 0.00 | 0.00 | 0.00 | 88 | 1018.4 |
| 20260901224205 | 54 | 254 | 0.0 | 0.0 | 0.00 | 0.01 | 0.00 | 88 | 1019.4 |
| 20260901223705 | 54 | 254 | 0.0 | 0.0 | 0.00 | 0.01 | 0.00 | 88 | 1019.4 |
| 20260901223512 | 54 | 254 | 0.0 | 0.0 | 0.00 | 0.00 | 0.00 | 88 | 1018.4 |
| 20260901222705 | 54 | 254 | 0.0 | 0.0 | 0.00 | 0.01 | 0.00 | 88 | 1019.5 |
| 20260901222512 | 54 | 254 | 0.0 | 0.0 | 0.00 | 0.00 | 0.00 | 88 | 1018.5 |
| 20260901221706 | 54 | 254 | 0.0 | 0.0 | 0.00 | 0.01 | 0.00 | 87 | 1019.6 |
| 20260901221205 | 54 | 254 | 0.0 | 0.0 | 0.00 | 0.01 | 0.00 | 87 | 1019.5 |
| 20260901220705 | 54 | 254 | 0.0 | 0.0 | 0.00 | 0.01 | 0.00 | 86 | 1019.6 |
| 20260901215705 | 55 | 254 | 0.0 | 0.0 | 0.00 | 0.01 | 0.01 | 86 | 1019.5 |
| 20260901215206 | 55 | 254 | 0.0 | 0.0 | 0.00 | 0.01 | 0.01 | 86 | 1019.4 |
| 20260901214705 | 55 | 254 | 0.0 | 0.0 | 0.00 | 0.01 | 0.01 | 85 | 1019.4 |
| 20260901214511 | 55 | 254 | 0.0 | 0.0 | 0.00 | 0.01 | 0.01 | 85 | 1018.4 |
| 20260901214205 | 55 | 254 | 0.0 | 0.0 | 0.00 | 0.01 | 0.01 | 85 | 1019.3 |
| 20260901213706 | 55 | 254 | 0.0 | 0.0 | 0.00 | 0.01 | 0.01 | 85 | 1019.2 |
| 20260901213512 | 55 | 254 | 0.0 | 0.0 | 0.00 | 0.01 | 0.01 | 84 | 1018.3 |
| 20260901213205 | 55 | 254 | 0.0 | 0.0 | 0.00 | 0.01 | 0.01 | 84 | 1019.3 |
| 20260901212511 | 56 | 254 | 0.0 | 0.0 | 0.00 | 0.01 | 0.01 | 84 | 1018.3 |
| 20260901212205 | 56 | 254 | 0.0 | 0.0 | 0.00 | 0.01 | 0.01 | 84 | 1019.2 |
| 20260901211705 | 56 | 254 | 0.0 | 0.0 | 0.00 | 0.01 | 0.01 | 83 | 1019.2 |
| 20260901211512 | 56 | 254 | 0.0 | 0.0 | 0.00 | 0.01 | 0.01 | 83 | 1018.2 |
| 20260901211205 | 56 | 254 | 0.0 | 0.0 | 0.00 | 0.01 | 0.01 | 82 | 1019.1 |
| 20260901210705 | 56 | 254 | 0.0 | 0.0 | 0.00 | 0.01 | 0.01 | 82 | 1019.1 |
| 20260901210512 | 56 | 254 | 0.0 | 0.0 | 0.00 | 0.01 | 0.01 | 82 | 1018.0 |
| 20260901210205 | 56 | 254 | 0.0 | 0.0 | 0.00 | 0.01 | 0.01 | 81 | 1019.0 |
| 20260901205705 | 57 | 254 | 0.0 | 0.0 | 0.00 | 0.01 | 0.01 | 81 | 1019.0 |
| 20260901205512 | 57 | 254 | 0.0 | 0.0 | 0.00 | 0.01 | 0.01 | 81 | 1018.1 |
| 20260901204512 | 57 | 254 | 0.0 | 0.0 | 0.00 | 0.01 | 0.01 | 80 | 1018.0 |
| 20260901204205 | 57 | 254 | 0.0 | 0.0 | 0.00 | 0.01 | 0.01 | 80 | 1018.9 |
| 20260901203511 | 58 | 254 | 0.0 | 0.0 | 0.00 | 0.01 | 0.01 | 79 | 1018.0 |
| 20260901203205 | 58 | 254 | 0.0 | 0.0 | 0.00 | 0.01 | 0.01 | 79 | 1018.9 |
| 20260901202511 | 58 | 254 | 0.0 | 0.0 | 0.00 | 0.01 | 0.01 | 79 | 1018.0 |
| 20260901202205 | 59 | 254 | 0.0 | 0.0 | 0.00 | 0.01 | 0.01 | 78 | 1018.9 |
| 20260901201705 | 59 | 254 | 0.0 | 0.0 | 0.00 | 0.01 | 0.01 | 77 | 1018.9 |
| 20260901201205 | 59 | 254 | 0.0 | 0.0 | 0.00 | 0.01 | 0.01 | 76 | 1018.9 |
| 20260901200708 | 60 | 254 | 0.0 | 0.0 | 0.00 | 0.01 | 0.01 | 76 | 1018.9 |
| 20260901200512 | 60 | 254 | 0.0 | 0.0 | 0.00 | 0.01 | 0.01 | 76 | 1018.1 |
| 20260901200205 | 60 | 254 | 0.0 | 0.0 | 0.00 | 0.01 | 0.01 | 76 | 1019.0 |
| 20260901195705 | 60 | 254 | 0.0 | 0.0 | 0.00 | 0.01 | 0.01 | 75 | 1019.1 |
| 20260901195511 | 60 | 254 | 0.0 | 0.0 | 0.00 | 0.01 | 0.01 | 75 | 1018.1 |
| 20260901195205 | 61 | 254 | 0.0 | 0.0 | 0.00 | 0.01 | 0.01 | 74 | 1019.0 |
| 20260901194705 | 61 | 254 | 0.0 | 0.0 | 0.00 | 0.01 | 0.01 | 74 | 1019.1 |
| 20260901194511 | 61 | 254 | 0.0 | 0.0 | 0.00 | 0.01 | 0.01 | 74 | 1018.2 |
| 20260901194205 | 61 | 254 | 0.0 | 0.0 | 0.00 | 0.01 | 0.01 | 73 | 1019.1 |
| 20260901193705 | 62 | 254 | 0.0 | 0.0 | 0.00 | 0.01 | 0.01 | 72 | 1019.1 |
| 20260901193511 | 62 | 254 | 0.0 | 0.0 | 0.00 | 0.01 | 0.01 | 72 | 1018.2 |
| 20260901193205 | 62 | 254 | 0.0 | 0.0 | 0.00 | 0.01 | 0.01 | 71 | 1019.0 |
| 20260901192705 | 62 | 254 | 0.0 | 0.0 | 0.00 | 0.01 | 0.01 | 70 | 1019.0 |
| 20260901192511 | 62 | 254 | 0.0 | 0.0 | 0.00 | 0.01 | 0.01 | 70 | 1018.1 |
| 20260901192205 | 62 | 254 | 0.0 | 0.0 | 0.00 | 0.01 | 0.01 | 70 | 1019.0 |
| 20260901191511 | 63 | 254 | 0.0 | 0.0 | 0.00 | 0.01 | 0.01 | 69 | 1018.1 |
| 20260901191207 | 63 | 254 | 0.0 | 0.0 | 0.00 | 0.03 | 0.01 | 68 | 1019.0 |
| 20260901190511 | 63 | 254 | 0.0 | 0.0 | 0.00 | 0.01 | 0.01 | 68 | 1018.1 |
| 20260901190205 | 63 | 254 | 0.0 | 0.0 | 0.00 | 0.03 | 0.01 | 67 | 1018.9 |
| 20260901185705 | 63 | 254 | 0.0 | 0.0 | 0.00 | 0.03 | 0.01 | 66 | 1018.9 |
| 20260901185511 | 63 | 254 | 0.0 | 0.0 | 0.00 | 0.01 | 0.01 | 66 | 1018.0 |
| 20260901185205 | 64 | 254 | 0.0 | 0.0 | 0.00 | 0.03 | 0.01 | 66 | 1018.9 |
| 20260901184705 | 64 | 254 | 0.0 | 0.0 | 0.00 | 0.03 | 0.01 | 65 | 1018.8 |
| 20260901184511 | 64 | 254 | 0.0 | 0.0 | 0.00 | 0.01 | 0.01 | 65 | 1017.9 |
| 20260901184205 | 64 | 254 | 0.0 | 0.0 | 0.00 | 0.03 | 0.01 | 65 | 1018.8 |
| 20260901183705 | 64 | 254 | 0.0 | 0.0 | 0.00 | 0.03 | 0.01 | 64 | 1018.8 |
| 20260901183511 | 65 | 254 | 0.0 | 0.0 | 0.00 | 0.01 | 0.01 | 64 | 1017.8 |
| 20260901183205 | 65 | 254 | 0.0 | 0.0 | 0.00 | 0.03 | 0.01 | 63 | 1018.7 |
| 20260901182705 | 65 | 254 | 0.0 | 0.0 | 0.00 | 0.03 | 0.01 | 63 | 1018.6 |
| 20260901182511 | 65 | 254 | 0.0 | 0.0 | 0.00 | 0.01 | 0.01 | 63 | 1017.7 |
| 20260901182205 | 65 | 254 | 0.0 | 0.0 | 0.00 | 0.03 | 0.01 | 62 | 1018.6 |
| 20260901181707 | 66 | 254 | 0.0 | 0.0 | 0.00 | 0.03 | 0.01 | 61 | 1018.5 |
| 20260901181513 | 66 | 254 | 0.0 | 0.0 | 0.00 | 0.01 | 0.01 | 61 | 1017.5 |
| 20260901181205 | 66 | 254 | 0.0 | 0.0 | 0.00 | 0.03 | 0.01 | 60 | 1018.5 |
| 20260901180705 | 67 | 269 | 0.0 | 0.0 | 0.00 | 0.03 | 0.01 | 60 | 1018.5 |
| 20260901180511 | 67 | 258 | 0.0 | 0.0 | 0.00 | 0.01 | 0.01 | 59 | 1017.5 |
| 20260901180205 | 67 | 255 | 0.0 | 0.0 | 0.00 | 0.03 | 0.01 | 59 | 1018.4 |
| 20260901175705 | 67 | 251 | 0.0 | 0.0 | 0.00 | 0.03 | 0.01 | 59 | 1018.4 |
| 20260901175512 | 67 | 251 | 0.0 | 0.0 | 0.00 | 0.01 | 0.01 | 59 | 1017.4 |
| 20260901175205 | 67 | 262 | 0.0 | 0.0 | 0.00 | 0.03 | 0.01 | 58 | 1018.3 |
| 20260901174705 | 68 | 260 | 0.0 | 0.0 | 0.00 | 0.03 | 0.01 | 57 | 1018.3 |
| 20260901174205 | 68 | 255 | 0.0 | 0.0 | 0.00 | 0.03 | 0.01 | 57 | 1018.3 |
| 20260901173705 | 68 | 254 | 0.0 | 1.0 | 0.00 | 0.03 | 0.01 | 57 | 1018.2 |
| 20260901173512 | 68 | 260 | 0.0 | 1.0 | 0.00 | 0.01 | 0.01 | 56 | 1017.3 |
| 20260901173205 | 68 | 280 | 0.0 | 1.0 | 0.00 | 0.03 | 0.01 | 57 | 1018.2 |
| 20260901172705 | 68 | 269 | 0.0 | 3.0 | 0.00 | 0.05 | 0.01 | 57 | 1018.2 |
| 20260901172511 | 68 | 264 | 0.0 | 1.0 | 0.00 | 0.01 | 0.01 | 57 | 1017.2 |
| 20260901172205 | 69 | 273 | 0.0 | 3.0 | 0.00 | 0.06 | 0.01 | 56 | 1018.1 |
| 20260901171705 | 69 | 272 | 0.0 | 2.0 | 0.00 | 0.06 | 0.01 | 57 | 1018.1 |
| 20260901171512 | 69 | 258 | 0.0 | 3.0 | 0.00 | 0.01 | 0.01 | 56 | 1017.2 |
| 20260901171205 | 69 | 254 | 1.0 | 7.0 | 0.00 | 0.06 | 0.01 | 56 | 1018.1 |
| 20260901170705 | 69 | 279 | 2.0 | 9.0 | 0.00 | 0.06 | 0.01 | 57 | 1018.0 |
| 20260901165511 | 69 | 285 | 1.0 | 11.0 | 0.00 | 0.01 | 0.01 | 56 | 1017.0 |
| 20260901164705 | 69 | 256 | 1.0 | 3.0 | 0.00 | 0.06 | 0.01 | 58 | 1017.9 |
| 20260901164511 | 69 | 269 | 0.0 | 4.0 | 0.00 | 0.01 | 0.01 | 58 | 1016.9 |